GW2861 Weather Reports


Display with metric or nautical units.
time (UTC)temp
F
wind
direction
speed
MPH
gust
MPH
rain 1hr
in
rain 24hr
in
rain mn
in
humidity
%
barometer
mb
20260504151017 68 226 2.0 7.0 0.00 0.00 0.00 34
20260504141017 64 222 1.0 7.0 0.00 0.00 0.00 40
20260504081036 48 193 0.0 2.0 0.00 0.00 0.00 55
20260504050016 50 194 1.0 2.0 0.00 0.00 0.00 47
20260504045016 51 196 1.0 5.0 0.00 0.00 0.00 47
20260504044017 50 194 0.0 2.0 0.00 0.00 0.00 48
20260504043016 50 197 0.0 1.0 0.00 0.00 0.00 49
20260504042016 50 198 0.0 3.0 0.00 0.00 0.00 50
20260504041015 50 195 0.0 1.0 0.00 0.00 0.00 48
20260504040018 49 191 0.0 2.0 0.00 0.00 0.00 50
20260504035016 48 192 0.0 1.0 0.00 0.00 0.00 54
20260504034016 47 0.0 0.0 0.00 0.00 0.00 57
20260504033015 47 193 0.0 0.0 0.00 0.00 0.00 55
20260504032016 47 188 0.0 1.0 0.00 0.00 0.00 56
20260504031016 47 0.0 0.0 0.00 0.00 0.00 58
20260504030016 46 192 0.0 0.0 0.00 0.00 0.00 59
20260504025017 46 0.0 0.0 0.00 0.00 0.00 60
20260504024017 46 0.0 0.0 0.00 0.00 0.00 60
20260504023016 47 0.0 0.0 0.00 0.00 0.00 59
20260504022015 47 0.0 0.0 0.00 0.00 0.00 59
20260504021017 47 196 0.0 0.0 0.00 0.00 0.00 57
20260504020036 47 0.0 0.0 0.00 0.00 0.00 57
20260504015015 48 196 0.0 1.0 0.00 0.00 0.00 56
20260504014015 48 196 0.0 1.0 0.00 0.00 0.00 55
20260504013037 49 0.0 0.0 0.00 0.00 0.00 53
20260504012016 49 0.0 0.0 0.00 0.00 0.00 53
20260504011035 50 0.0 0.0 0.00 0.00 0.00 52
20260504010035 51 0.0 0.0 0.00 0.00 0.00 49
20260504005016 52 0.0 0.0 0.00 0.00 0.00 47
20260504004037 52 197 0.0 0.0 0.00 0.00 0.00 45
20260504003035 53 196 0.0 0.0 0.00 0.00 0.00 42
20260504002017 55 0.0 0.0 0.00 0.00 0.00 40
20260504001036 56 0.0 0.0 0.00 0.00 0.00 37
20260504000036 56 193 0.0 1.0 0.00 0.00 0.00 36
20260503235035 57 197 0.0 1.0 0.00 0.00 0.00 35
20260503234057 58 207 1.0 4.0 0.00 0.00 0.00 33
20260503233036 58 194 0.0 2.0 0.00 0.00 0.00 31
20260503232056 59 204 1.0 3.0 0.00 0.00 0.00 31
20260503231055 59 214 1.0 2.0 0.00 0.00 0.00 30
20260503230036 60 207 0.0 2.0 0.00 0.00 0.00 29
20260503225036 60 197 1.0 4.0 0.00 0.00 0.00 29
20260503224035 60 204 1.0 3.0 0.00 0.00 0.00 28
20260503223057 60 213 1.0 3.0 0.00 0.00 0.00 27
20260503222036 60 261 2.0 6.0 0.00 0.00 0.00 27
20260503221036 60 233 2.0 6.0 0.00 0.00 0.00 27
20260503220036 61 223 1.0 5.0 0.00 0.00 0.00 27
20260503215037 61 206 1.0 4.0 0.00 0.00 0.00 27
20260503214036 61 189 1.0 5.0 0.00 0.00 0.00 27
20260503213036 60 208 2.0 6.0 0.00 0.00 0.00 27
20260503212035 60 278 2.0 7.0 0.00 0.00 0.00 27
20260503211057 60 204 3.0 10.0 0.00 0.00 0.00 27
20260503210036 61 296 3.0 10.0 0.00 0.00 0.00 27
20260503205036 61 250 2.0 7.0 0.00 0.00 0.00 27
20260503204035 61 201 2.0 5.0 0.00 0.00 0.00 27
20260503203036 60 234 3.0 8.0 0.00 0.00 0.00 28
20260503202036 60 347 3.0 9.0 0.00 0.00 0.00 28
20260503201035 59 301 3.0 9.0 0.00 0.00 0.00 29
20260503200057 60 210 3.0 10.0 0.00 0.00 0.00 29
20260503195036 60 300 4.0 16.0 0.00 0.00 0.00 29
20260503194036 60 207 2.0 8.0 0.00 0.00 0.00 30
20260503193035 59 180 3.0 17.0 0.00 0.00 0.00 30
20260503192037 58 224 3.0 13.0 0.00 0.00 0.00 30
20260503191036 58 210 2.0 5.0 0.00 0.00 0.00 30
20260503190036 58 251 4.0 18.0 0.00 0.00 0.00 30
20260503185035 57 277 3.0 8.0 0.00 0.00 0.00 32
20260503184056 57 194 2.0 9.0 0.00 0.00 0.00 32
20260503183036 57 257 3.0 8.0 0.00 0.00 0.00 33
20260503182035 57 218 2.0 8.0 0.00 0.00 0.00 32
20260503181055 56 147 2.0 12.0 0.00 0.00 0.00 35
20260503180036 55 192 2.0 8.0 0.00 0.00 0.00 35
20260503175036 56 211 2.0 6.0 0.00 0.00 0.00 35
20260503174035 55 223 3.0 13.0 0.00 0.00 0.00 35
20260503173037 56 280 5.0 11.0 0.00 0.00 0.00 35
20260503172036 55 225 2.0 8.0 0.00 0.00 0.00 37
20260503171036 54 256 3.0 9.0 0.00 0.00 0.00 38